| time (UTC) | temp C | wind direction | speed KPH | gust KPH | rain 1hr cm | rain 24hr cm | rain mn cm | humidity % | barometer mb |
| 20260504043017 | 10 | 0.0 | 0.0 | 0.00 | 0.00 | 0.00 | 56 | 1015.6 | |
| 20260504040017 | 10 | 0.0 | 0.0 | 0.00 | 0.00 | 0.00 | 53 | 1015.6 | |
| 20260504033017 | 10 | 0.0 | 0.0 | 0.00 | 0.00 | 0.00 | 52 | 1015.4 | |
| 20260504030017 | 10 | 0.0 | 0.0 | 0.00 | 0.00 | 0.00 | 55 | 1015.1 | |
| 20260504023037 | 10 | 0.0 | 0.0 | 0.00 | 0.00 | 0.00 | 52 | 1015.0 | |
| 20260504020016 | 10 | 0.0 | 0.0 | 0.00 | 0.00 | 0.00 | 53 | 1015.0 | |
| 20260504013016 | 11 | 0.0 | 0.0 | 0.00 | 0.00 | 0.00 | 49 | 1014.8 | |
| 20260504010016 | 12 | 0.0 | 0.0 | 0.00 | 0.00 | 0.00 | 47 | 1014.6 | |
| 20260504003017 | 12 | 0.0 | 0.0 | 0.00 | 0.00 | 0.00 | 43 | 1014.5 | |
| 20260504000057 | 13 | 0.0 | 0.0 | 0.00 | 0.00 | 0.00 | 39 | 1014.1 | |
| 20260503233017 | 15 | 0.0 | 0.0 | 0.00 | 0.00 | 0.00 | 35 | 1014.0 | |
| 20260503230017 | 15 | 0.0 | 0.0 | 0.00 | 0.00 | 0.00 | 34 | 1013.8 | |
| 20260503223037 | 16 | 0.0 | 3.2 | 0.00 | 0.00 | 0.00 | 31 | 1013.9 | |
| 20260503220017 | 17 | 0.0 | 4.8 | 0.00 | 0.00 | 0.00 | 30 | 1014.0 | |
| 20260503213016 | 17 | 0.0 | 8.0 | 0.00 | 0.00 | 0.00 | 31 | 1014.1 | |
| 20260503210016 | 17 | 113 | 1.6 | 6.4 | 0.00 | 0.00 | 0.00 | 32 | 1014.1 |
| 20260503203017 | 17 | 0.0 | 4.8 | 0.00 | 0.00 | 0.00 | 33 | 1014.1 | |
| 20260503200037 | 16 | 68 | 1.6 | 8.0 | 0.00 | 0.00 | 0.00 | 33 | 1014.7 |
| 20260503193016 | 16 | 45 | 1.6 | 9.7 | 0.00 | 0.00 | 0.00 | 34 | 1014.9 |
| 20260503190016 | 15 | 90 | 1.6 | 8.0 | 0.00 | 0.00 | 0.00 | 36 | 1015.4 |
| 20260503183016 | 15 | 68 | 1.6 | 8.0 | 0.00 | 0.00 | 0.00 | 39 | 1015.8 |
| 20260503180016 | 14 | 45 | 1.6 | 4.8 | 0.00 | 0.00 | 0.00 | 37 | 1015.8 |
| 20260503173015 | 13 | 293 | 1.6 | 14.5 | 0.00 | 0.00 | 0.00 | 38 | 1016.2 |